TimeCST,TemperatureF,Dew PointF,Humidity,Sea Level PressureIn,VisibilityMPH,Wind Direction,Wind SpeedMPH,Gust SpeedMPH,PrecipitationIn,Events,Conditions,WindDirDegrees,DateUTC
12:52 AM,50.0,33.1,52,29.78,10.0,SE,11.5,-,N/A,,Clear,140,2012-01-20 06:52:00
1:52 AM,48.9,33.1,54,29.76,10.0,South,4.6,-,N/A,,Clear,190,2012-01-20 07:52:00
2:52 AM,51.1,33.1,50,29.74,10.0,South,8.1,-,N/A,,Clear,190,2012-01-20 08:52:00
3:52 AM,52.0,33.1,49,29.73,10.0,SSW,10.4,-,N/A,,Clear,200,2012-01-20 09:52:00
4:52 AM,51.1,30.9,46,29.71,10.0,SSW,5.8,-,N/A,,Clear,200,2012-01-20 10:52:00
5:52 AM,50.0,30.9,48,29.73,10.0,SSW,10.4,-,N/A,,Clear,200,2012-01-20 11:52:00
6:52 AM,51.1,32.0,48,29.74,10.0,South,9.2,-,N/A,,Clear,190,2012-01-20 12:52:00
7:52 AM,51.1,32.0,48,29.74,10.0,SSW,12.7,-,N/A,,Clear,200,2012-01-20 13:52:00
8:52 AM,55.0,33.1,43,29.76,10.0,SSW,12.7,-,N/A,,Clear,210,2012-01-20 14:52:00
9:52 AM,61.0,33.1,35,29.77,10.0,SW,10.4,-,N/A,,Clear,220,2012-01-20 15:52:00
10:52 AM,66.9,30.9,26,29.77,10.0,WSW,10.4,-,N/A,,Clear,240,2012-01-20 16:52:00
11:52 AM,72.0,28.0,20,29.74,10.0,WSW,11.5,-,N/A,,Clear,240,2012-01-20 17:52:00
12:52 PM,78.1,21.0,12,29.70,10.0,West,17.3,-,N/A,,Clear,260,2012-01-20 18:52:00
1:52 PM,81.0,25.0,13,29.67,10.0,West,16.1,-,N/A,,Clear,280,2012-01-20 19:52:00
2:52 PM,81.0,21.9,11,29.65,10.0,WSW,12.7,19.6,N/A,,Clear,250,2012-01-20 20:52:00
3:52 PM,82.0,19.0,10,29.66,10.0,West,12.7,-,N/A,,Clear,260,2012-01-20 21:52:00
4:52 PM,81.0,21.9,11,29.68,10.0,WSW,11.5,-,N/A,,Clear,250,2012-01-20 22:52:00
5:52 PM,73.0,26.1,17,29.70,10.0,SW,8.1,-,N/A,,Mostly Cloudy,220,2012-01-20 23:52:00
6:52 PM,68.0,28.0,22,29.73,10.0,SW,5.8,-,N/A,,Scattered Clouds,220,2012-01-21 00:52:00
7:52 PM,63.0,36.0,37,29.78,10.0,North,16.1,-,N/A,,Clear,360,2012-01-21 01:52:00
7:59 PM,62.6,37.4,39,29.81,10.0,North,13.8,-,N/A,,Clear,360,2012-01-21 01:59:00
8:52 PM,55.0,37.0,51,29.85,10.0,North,11.5,-,N/A,,Clear,350,2012-01-21 02:52:00
9:52 PM,51.1,36.0,56,29.91,10.0,North,13.8,-,N/A,,Clear,360,2012-01-21 03:52:00
10:52 PM,48.0,34.0,58,29.94,10.0,North,12.7,-,N/A,,Clear,360,2012-01-21 04:52:00
11:52 PM,45.0,30.9,58,29.97,10.0,North,15.0,-,N/A,,Clear,360,2012-01-21 05:52:00